This demonstration page uses our WeatherBlox Daily Observations layout. Learn more.

Left ArrowRight Arrow

41.12389, -100.76542

Hourly Observations for July 31, 2018

Temp ( °F °C ) Dew Point ( °F °C ) Humidity (%) Winds ( mph kmh ) Pressure ( in mb ) Visibility ( mi km ) Precip ( " mm )
12:53 am 00:53 Clear 51 10.6 51 10.6 100 100 NW 3 6 30.22 1023 10 16 0.00 0.00
1:53 am 01:53 Clear 51 10.6 51 10.6 100 100 Calm 30.21 1023 10 16 0.00 0.00
2:31 am 02:31 Partly Cloudy 50 10 50 10 100 100 Calm 30.24 1024 10 16 0.00 0.00
2:42 am 02:42 Mostly Clear with Mist and Fog 49 9.4 49 9.4 100 100 Calm 30.24 1024 2 3 0.00 0.00
2:53 am 02:53 Mostly Clear with Mist and Fog 51 10.6 51 10.6 100 100 Calm 30.21 1023 6 10 0.00 0.00
3:16 am 03:16 Mostly Cloudy 51 10.6 51 10.6 100 100 Calm 30.21 1023 8 13 0.00 0.00
3:25 am 03:25 Mostly Cloudy with Mist and Fog 50 10 50 10 100 100 Calm 30.24 1024 1 2 0.00 0.00
3:29 am 03:29 Mostly Cloudy with Fog 50 10 50 10 100 100 Calm 30.24 1024 0 0 0.00 0.00
3:53 am 03:53 Mostly Cloudy with Fog 50 10 50 10 100 100 NW 3 6 30.21 1023 0 0 0.00 0.00
4:03 am 04:03 Mostly Cloudy with Fog 50 10 50 10 100 100 Calm 30.24 1024 1 1 0.00 0.00
4:14 am 04:14 Mostly Cloudy with Fog 50 10 50 10 100 100 NNW 5 7 30.24 1024 0 0 0.00 0.00
4:28 am 04:28 Mostly Cloudy with Mist and Fog 51 10.6 50 10 96 96 N 5 7 30.21 1023 1 1 0.00 0.00
4:33 am 04:33 Mostly Cloudy with Mist and Fog 51 10.6 50 10 96 96 N 3 6 30.21 1023 2 2 0.00 0.00
4:36 am 04:36 Partly Cloudy with Mist and Fog 51 10.6 50 10 96 96 Calm 30.21 1023 3 5 0.00 0.00
4:53 am 04:53 Clear 49 9.4 48 8.9 97 97 NNW 3 6 30.22 1023 10 16 0.00 0.00
5:15 am 05:15 Partly Cloudy 47 8.3 47 8.3 100 100 NW 5 7 30.24 1024 10 16 0.00 0.00
5:25 am 05:25 Mostly Cloudy 47 8.3 47 8.3 100 100 NW 3 6 30.24 1024 9 14 0.00 0.00
5:53 am 05:53 Cloudy with Mist and Fog 49 9.4 49 9.4 100 100 Calm 30.21 1023 1 2 0.00 0.00
5:55 am 05:55 Mostly Cloudy with Mist and Fog 48 8.9 48 8.9 100 100 Calm 30.24 1024 1 1 0.00 0.00
6:25 am 06:25 Mostly Cloudy with Fog 48 8.9 48 8.9 100 100 Calm 30.24 1024 0 0 0.00 0.00
6:53 am 06:53 Mostly Cloudy with Fog 50 10 50 10 100 100 Calm 30.20 1023 5 8 0.00 0.00
7:41 am 07:41 Mostly Cloudy with Mist and Fog 55 12.8 53 11.7 93 93 Calm 30.21 1023 1 2 0.00 0.00
7:44 am 07:44 Mostly Cloudy with Mist and Fog 55 12.8 53 11.7 93 93 Calm 30.21 1023 3 4 0.00 0.00
7:47 am 07:47 Partly Cloudy with Mist and Fog 55 13 54 12 94 94 Calm 30.18 1022 5 8 0.00 0.00
7:53 am 07:53 Partly Cloudy with Mist and Fog 56 13.3 54 12.2 93 93 Calm 30.19 1023 6 10 0.00 0.00
8:53 am 08:53 Sunny 61 16.1 59 15 93 93 Calm 30.19 1022 10 16 0.00 0.00
9:53 am 09:53 Sunny 67 19.4 60 15.6 79 79 WNW 7 11 30.17 1022 10 16 0.00 0.00
10:53 am 10:53 Sunny 72 22.2 62 16.7 71 71 W 6 9 30.16 1021 10 16 0.00 0.00
11:53 am 11:53 Sunny 75 23.9 59 15 58 58 NW 6 9 30.15 1021 10 16 0.00 0.00
12:53 pm 12:53 Sunny 77 25 57 13.9 50 50 VRB 5 7 30.14 1021 10 16 0.00 0.00
1:53 pm 13:53 Sunny 80 26.7 59 15 49 49 VRB 3 6 30.11 1020 10 16 0.00 0.00
2:53 pm 14:53 Sunny 81 27.2 56 13.3 42 42 VRB 3 6 30.10 1019 10 16 0.00 0.00
3:53 pm 15:53 Sunny 82 27.8 55 12.8 40 40 Calm 30.08 1019 10 16 0.00 0.00
4:53 pm 16:53 Sunny 83 28.3 55 12.8 38 38 undefined N/A 30.07 1018 10 16 0.00 0.00
5:53 pm 17:53 Sunny 83 28.3 55 12.8 38 38 Calm 30.06 1018 10 16 0.00 0.00
6:53 pm 18:53 Sunny 82 27.8 56 13.3 41 41 SW 3 6 30.05 1018 10 16 0.00 0.00
7:53 pm 19:53 Sunny 79 26.1 62 16.7 56 56 SSE 3 6 30.03 1017 10 16 0.00 0.00
8:53 pm 20:53 Sunny 71 21.7 61 16.1 71 71 SSE 5 7 30.04 1017 10 16 0.00 0.00
9:53 pm 21:53 Clear 65 18.3 60 15.6 84 84 S 5 7 30.04 1017 10 16 0.00 0.00
10:53 pm 22:53 Clear 65 18.3 55 12.8 70 70 S 5 7 30.05 1018 10 16 0.00 0.00
11:53 pm 23:53 Clear 62 16.7 55 12.8 78 78 Calm 30.05 1018 10 16 0.00 0.00

Powered by AerisWeather